Wind_Speed
5 5 5 5 6 7 7 6 6 6 6 7 6 6 6 5 5 6 6 7 7 5 4 2 1 3 8 11 12 10 7 4 3 5 5 7 14 17 17 14 11 7 4 4 4 6 7 10 10 10 9 6 5 3 7 4 1 4 4 5 6 5 2 4 4 3 2 4 9 10 10 7 7 7 5 5 5 7 8 5 4 4 4 6 10 15 20 19
5 6 6 6 6 7 9 9 8 7 6 7 7 7 7 6 6 7 7 7 7 5 3 2 2 6 10 13 13 9 4 1 0 7 7 11 20 19 14 10 6 4 3 4 6 8 8 9 10 11 8 5 4 3 6 3 2 5 4 6 4 3 3 5 6 5 5 2 10 10 9 6 7 10 8 8 8 9 9 7 7 7 6 7 10 14 18 17
6 6 6 6 6 7 9 9 10 9 8 8 7 7 8 8 7 7 8 7 6 4 3 3 4 8 13 15 12 3 3 5 4 4 8 17 20 14 10 7 4 3 4 4 6 7 8 6 8 11 7 5 4 3 5 2 2 4 4 6 1 5 4 5 6 4 5 2 9 9 7 5 7 9 8 8 8 11 11 9 10 11 10 10 12 14 16 15
6 6 6 6 6 7 8 9 9 9 9 8 7 7 8 8 8 8 8 7 6 4 4 4 5 9 15 15 9 1 6 7 2 4 11 19 16 12 10 7 4 2 3 4 6 6 8 6 7 10 7 6 4 4 5 2 1 2 3 4 4 3 1 6 6 4 4 1 6 8 7 6 7 6 7 7 8 9 9 9 8 10 13 13 14 15 16 15
6 7 6 6 5 5 6 7 8 8 8 8 8 8 9 8 8 8 8 8 7 5 5 5 6 10 15 13 9 3 6 5 2 9 16 18 14 12 12 8 4 3 2 4 5 5 6 7 8 8 7 6 5 6 4 3 1 1 0 2 5 4 2 5 5 4 3 1 5 7 7 6 7 5 7 9 8 4 2 4 3 6 13 15 15 16 15 14
7 7 7 6 5 6 6 7 7 7 7 7 7 8 9 9 8 8 8 7 7 6 5 6 6 9 12 12 10 6 5 1 6 14 17 16 14 14 12 8 4 2 2 4 5 4 6 7 8 8 7 6 6 5 2 3 2 3 1 3 4 4 3 4 4 3 3 3 6 5 4 6 7 6 6 8 5 3 4 4 5 4 12 15 16 16 14 14
7 8 8 6 6 7 7 8 8 8 7 6 6 6 6 8 9 9 8 7 6 5 5 5 6 7 8 10 9 7 4 3 10 17 17 15 14 13 11 7 4 1 2 5 5 6 6 8 9 8 8 6 5 4 2 2 4 5 1 4 4 5 4 4 4 2 2 2 3 2 3 5 7 4 3 7 3 5 2 3 5 6 10 14 15 14 14 14
7 8 8 8 8 8 9 9 8 7 6 4 4 4 4 6 8 10 8 7 6 5 6 5 5 6 8 9 7 6 1 6 14 17 17 14 12 11 10 7 4 1 3 5 5 5 6 9 10 8 8 4 2 2 1 2 4 2 2 5 3 5 5 5 4 3 3 2 3 2 3 3 3 1 2 8 5 6 5 4 6 7 9 11 13 14 14 14
8 9 9 9 9 10 10 9 8 6 4 2 3 4 4 5 8 10 8 7 7 7 6 6 7 9 10 8 7 4 3 8 13 16 15 12 9 8 7 5 4 3 4 3 4 6 5 7 9 6 4 0 2 2 2 3 1 3 5 5 5 5 5 4 4 4 3 2 2 3 3 1 0 3 6 8 8 8 7 7 7 9 10 11 11 13 13 13
8 9 10 9 10 10 10 9 7 5 2 1 2 3 4 6 10 10 8 8 8 8 9 8 9 9 9 7 8 2 5 8 11 13 12 11 8 7 7 3 2 3 4 1 2 5 4 4 4 2 1 3 4 3 3 2 2 6 8 7 6 6 4 3 4 4 2 3 1 4 3 3 2 3 6 7 10 9 9 8 9 9 11 11 10 11 12 13
7 9 9 9 10 10 9 8 6 5 2 0 2 3 5 8 10 10 9 9 9 10 11 9 8 7 7 5 5 1 6 7 9 11 10 11 11 11 11 6 2 3 4 1 1 3 4 5 2 2 1 4 6 5 4 3 6 9 9 8 6 5 5 3 3 4 2 3 1 4 3 4 4 6 7 7 11 11 10 10 10 10 11 11 11 10 10 12
7 8 9 9 10 9 8 7 5 4 3 4 5 7 8 10 10 9 8 9 10 12 13 9 6 3 4 1 4 4 5 7 9 10 9 10 13 14 13 10 6 4 5 1 3 3 3 2 2 1 1 5 5 4 5 5 6 8 5 3 5 5 4 5 4 3 3 2 2 3 5 8 11 11 6 10 11 10 10 10 10 11 10 10 11 9 9 12
6 7 7 7 8 6 6 7 7 8 9 10 10 10 10 9 8 8 8 9 11 14 14 7 3 3 5 2 5 3 4 5 8 10 8 7 9 10 12 11 9 7 5 5 6 5 3 2 2 6 5 3 3 4 6 5 5 5 4 2 4 4 5 7 5 4 4 2 2 3 5 7 10 11 8 11 11 11 10 10 10 10 10 10 10 10 10 12
5 5 6 6 6 4 5 7 9 11 12 13 13 12 12 11 11 10 9 10 11 14 11 2 1 2 1 3 3 4 5 4 8 12 9 8 5 4 9 10 11 11 9 10 8 6 5 5 9 10 5 4 6 7 7 5 4 3 2 2 4 5 3 8 6 6 5 4 3 4 5 7 3 10 9 9 10 11 10 10 11 10 10 10 10 11 11 13
5 5 4 4 4 4 5 8 9 11 13 15 16 16 16 14 12 11 9 9 9 10 7 3 1 3 2 5 2 4 8 6 9 13 10 10 7 3 5 7 9 10 10 10 8 7 6 7 9 7 5 6 8 8 5 4 4 3 3 3 5 4 2 7 6 6 4 3 5 5 5 7 2 9 8 8 10 11 10 10 11 11 12 11 10 11 11 13
4 4 3 3 3 4 6 8 10 12 16 17 17 15 13 11 10 9 8 6 7 7 4 3 2 5 1 4 2 3 8 8 9 10 9 10 8 5 3 2 4 6 6 7 6 6 6 6 5 4 6 6 6 5 3 4 4 4 5 5 3 4 2 4 5 5 3 2 7 8 6 7 1 8 8 8 10 11 10 11 12 12 12 12 10 11 11 13
3 3 1 1 3 6 7 9 11 12 15 15 13 11 10 10 10 9 8 6 7 7 3 2 2 4 1 3 1 2 7 9 9 9 8 9 7 5 5 4 1 2 4 4 3 3 4 4 2 3 4 3 3 3 5 4 4 4 5 5 4 5 5 3 3 5 4 3 7 10 9 12 8 6 10 11 11 12 11 12 13 12 12 12 11 11 12 13
2 2 1 1 4 8 8 9 11 12 11 10 10 10 11 11 10 10 8 4 6 6 4 4 4 2 3 4 2 4 8 8 9 8 8 9 5 4 5 2 3 3 3 3 2 1 1 2 3 3 3 4 3 4 5 3 4 3 1 5 4 4 7 6 1 4 5 5 7 9 10 15 17 9 10 13 13 13 13 13 12 13 13 13 13 13 14 14
2 2 3 4 6 8 9 11 13 14 13 13 13 13 13 11 10 12 14 8 2 2 1 4 5 1 2 6 5 8 8 7 7 8 10 10 5 4 4 3 4 6 6 4 1 1 1 2 3 3 2 2 1 2 3 4 6 7 6 6 7 6 6 2 3 4 2 4 8 12 12 15 17 15 10 12 14 14 14 13 12 12 13 13 14 14 14 15
1 3 4 6 7 9 12 17 17 17 15 12 9 7 7 6 4 6 12 11 6 3 3 4 5 2 2 6 9 11 7 5 4 9 13 12 6 5 4 4 5 5 3 3 1 2 2 3 2 1 2 3 5 4 4 4 4 6 6 6 7 8 4 2 5 4 1 4 8 10 13 16 17 17 13 10 13 14 15 15 14 13 13 14 15 15 16 16
2 3 6 8 9 12 17 19 16 13 9 4 2 3 2 1 1 3 4 7 6 5 5 4 4 3 3 4 9 12 5 5 1 10 17 12 5 4 2 2 5 3 2 2 1 1 3 4 2 4 4 4 4 3 2 3 3 4 5 6 6 6 3 2 3 3 2 3 7 9 13 16 16 17 16 11 13 15 16 16 16 17 16 14 15 17 16 14
2 4 8 10 11 16 19 17 12 7 3 1 4 5 2 2 3 7 4 4 5 4 4 3 1 3 2 1 6 9 4 2 1 11 20 16 4 2 4 2 3 0 3 1 2 3 3 0 4 4 3 2 1 1 1 2 3 4 4 5 4 3 3 2 4 3 2 3 6 10 12 15 17 18 18 15 15 15 15 17 16 17 16 15 16 16 16 15
3 5 10 12 13 18 20 15 9 4 1 4 3 3 2 6 11 9 3 4 4 2 3 3 3 5 4 3 7 10 4 2 4 10 20 17 5 4 6 3 1 1 1 1 3 4 2 3 4 3 1 1 1 1 2 3 4 4 3 5 4 4 4 2 2 1 4 5 7 10 11 14 16 16 16 16 17 15 14 16 16 15 16 17 16 15 15 17
3 6 11 14 16 20 20 13 7 3 3 3 1 5 9 13 12 6 1 2 3 1 2 2 2 5 5 3 7 8 4 5 5 8 15 13 5 4 4 3 2 1 2 4 3 1 3 4 3 1 1 2 1 1 2 4 4 3 1 5 5 5 5 4 3 5 7 7 5 9 10 10 7 7 9 10 12 13 12 13 14 15 15 14 14 15 15 16
4 6 10 15 18 21 20 12 6 6 3 0 5 9 13 13 8 2 1 1 2 3 2 1 1 3 3 3 6 5 1 4 5 7 11 10 6 3 1 1 3 1 3 4 2 3 4 3 1 1 2 2 3 2 1 3 5 2 2 3 4 5 6 7 7 8 7 4 3 4 8 6 2 3 6 3 7 11 10 11 14 14 13 13 13 14 14 15
3 6 10 14 18 21 19 9 7 8 5 2 5 11 13 9 3 1 2 3 2 1 1 2 2 2 3 4 6 3 2 1 4 5 6 6 4 2 0 0 1 2 2 3 2 1 3 2 1 2 3 2 4 3 2 2 6 2 1 3 3 4 6 8 8 6 6 5 2 2 5 8 6 7 8 4 7 10 9 11 13 11 12 12 12 13 13 14
2 5 10 13 17 21 14 4 7 10 5 3 9 13 11 4 2 1 2 4 2 0 1 1 0 3 3 3 5 2 1 2 1 2 5 5 3 2 1 1 1 2 2 1 1 1 2 2 2 2 4 4 4 2 2 2 5 2 1 2 3 5 7 7 6 5 5 7 4 5 5 8 8 6 4 5 6 9 9 11 12 11 12 13 13 13 14 14
1 6 10 11 16 21 10 1 8 10 5 6 13 15 8 2 2 0 3 4 1 0 1 2 1 2 2 2 4 2 1 4 2 2 4 4 3 2 1 2 1 3 3 3 2 1 0 1 2 2 4 4 1 2 4 2 3 1 1 3 4 5 7 6 5 6 5 6 7 5 5 6 8 5 2 4 5 7 6 6 7 9 11 12 13 13 14 14
1 6 10 11 16 19 10 3 6 9 7 9 16 15 7 2 2 2 3 3 0 1 0 1 1 1 2 2 2 3 1 2 2 3 3 2 2 1 1 3 2 4 3 4 1 2 1 2 1 2 3 1 2 4 3 2 2 2 1 3 3 4 6 5 6 6 4 6 8 3 4 4 9 7 2 4 5 5 4 6 6 5 7 9 10 11 12 12
3 7 11 12 13 13 8 3 6 9 9 13 17 12 6 3 3 3 3 2 0 2 0 1 1 3 5 3 1 3 2 3 3 4 2 1 2 3 2 1 1 3 3 2 2 3 3 2 1 2 1 1 3 3 2 2 2 2 2 4 4 6 5 5 5 4 4 6 3 3 3 3 7 8 4 1 1 1 4 8 9 8 6 6 7 7 8 8
5 7 12 11 9 9 6 3 6 9 11 16 16 9 5 3 2 4 2 1 0 1 1 1 1 2 4 2 0 3 2 2 4 5 1 1 2 3 2 1 2 3 3 4 3 3 4 3 2 2 0 1 2 2 1 1 2 2 4 5 5 5 4 5 4 3 5 4 2 5 2 3 7 7 5 4 4 4 5 8 10 11 9 7 5 5 6 5
5 6 10 10 9 8 5 4 8 11 15 17 12 5 4 3 3 3 0 0 1 1 0 1 2 2 3 2 1 3 2 1 3 4 3 1 0 2 1 2 1 2 2 1 1 3 5 3 4 4 1 2 3 3 3 3 3 4 5 4 5 4 3 4 3 3 6 3 4 5 1 4 10 12 12 14 15 11 8 7 9 11 10 8 7 5 4 4
6 5 7 8 8 7 5 6 11 15 17 14 6 3 3 4 3 1 1 0 1 2 1 0 1 2 3 2 1 3 2 1 2 2 1 2 1 1 1 2 3 2 1 2 2 2 2 2 6 5 2 4 6 4 2 2 4 4 4 3 4 5 4 6 5 5 6 3 3 5 1 6 10 10 12 16 15 9 7 7 7 8 9 8 7 5 4 5
8 6 6 8 8 7 7 10 13 16 15 8 4 3 3 4 1 1 1 1 1 1 1 1 1 2 3 2 2 2 2 1 2 2 1 2 3 1 2 1 1 2 3 2 2 2 2 1 5 4 2 5 7 4 2 3 3 2 1 3 4 4 4 6 5 6 7 7 4 3 1 6 7 4 5 8 7 5 6 6 5 6 7 7 7 6 6 6
11 10 11 12 10 9 9 11 14 14 9 4 4 4 4 3 1 1 2 2 2 2 2 1 2 3 2 2 2 1 1 1 1 2 3 2 2 1 1 1 2 1 3 2 1 0 4 2 3 2 2 5 5 1 1 4 4 1 1 2 3 2 4 5 4 4 5 8 7 3 4 7 8 11 11 10 9 7 6 6 6 7 7 6 6 6 6 5
9 10 11 11 10 8 7 9 11 9 5 4 4 4 3 1 1 0 1 2 2 2 3 2 2 3 2 2 2 2 1 1 1 2 2 2 2 1 1 2 2 0 2 2 1 0 4 1 5 3 2 3 0 1 0 4 2 1 1 2 0 2 4 5 4 1 2 6 7 5 8 8 8 12 10 6 6 5 5 6 7 8 6 5 5 6 5 5
5 6 7 8 8 6 5 7 7 5 4 4 4 3 1 1 1 1 2 1 0 0 2 3 1 2 2 1 2 3 2 1 1 2 1 2 1 2 3 1 1 1 1 2 1 0 3 3 4 4 2 3 1 2 3 3 2 2 2 1 1 1 1 3 4 3 3 7 7 6 11 11 8 7 2 5 4 5 6 6 7 6 5 5 6 6 5 5
2 3 4 6 6 4 4 4 4 4 3 3 4 2 0 0 1 2 1 0 1 1 3 3 0 0 1 2 1 3 1 1 2 1 2 1 1 2 4 3 1 1 1 2 1 1 2 4 2 2 1 4 3 3 4 4 3 3 3 1 1 2 2 3 3 4 6 7 7 8 11 11 9 9 6 5 7 6 5 6 7 7 6 5 6 6 5 5
2 2 2 5 4 3 3 3 3 4 3 4 4 1 1 1 2 2 1 1 1 2 3 1 1 0 1 1 1 2 2 1 1 1 2 1 1 2 3 1 2 3 1 1 2 1 1 3 1 1 1 3 3 4 4 4 4 2 3 2 2 2 4 4 2 3 5 7 8 8 8 9 9 8 9 9 6 4 5 6 7 7 7 6 5 5 6 5
3 2 1 3 2 3 4 2 3 4 3 2 2 0 1 1 2 2 2 2 1 1 1 1 0 1 2 1 2 1 1 3 3 2 1 1 1 3 3 1 3 5 2 1 2 1 2 3 2 1 2 2 4 4 4 3 5 5 5 5 4 2 2 3 3 2 4 6 8 8 9 10 6 2 5 8 6 5 6 7 7 6 6 7 6 6 6 5
2 2 1 2 1 2 3 2 2 2 2 1 0 1 0 0 3 3 2 2 1 1 1 3 2 1 1 1 2 2 2 3 3 3 3 3 2 2 3 2 5 8 4 1 2 3 3 3 4 3 3 5 4 2 1 2 1 4 5 6 7 6 3 4 5 3 3 5 6 6 10 12 5 1 5 8 6 6 7 7 7 6 7 7 6 6 7 7
2 2 2 3 1 2 2 1 2 1 2 1 1 1 1 0 2 3 3 1 2 1 1 2 2 2 3 2 1 2 3 4 3 4 4 4 3 1 2 3 6 9 4 0 1 1 1 3 6 7 8 5 2 4 4 4 3 2 4 5 6 6 7 7 6 2 3 3 3 3 9 12 5 4 6 7 6 6 6 6 7 7 7 8 7 8 9 9
2 0 3 2 2 1 3 2 1 2 1 1 1 1 1 1 2 2 3 4 3 2 2 2 2 2 3 1 1 2 3 3 4 5 3 4 2 2 2 4 7 8 5 1 1 2 0 3 5 8 8 3 5 4 3 2 1 3 6 7 7 6 5 5 3 1 2 5 4 4 9 12 5 4 5 4 4 4 4 5 7 7 7 8 9 9 9 10
1 1 2 2 1 1 3 3 2 2 2 1 1 1 1 2 2 2 4 5 4 2 3 2 2 2 1 0 2 3 3 2 4 4 3 3 1 3 2 5 7 7 5 1 1 3 3 4 3 5 7 3 2 2 2 1 3 5 6 8 10 6 4 2 1 0 5 11 11 8 11 12 4 4 5 5 5 6 7 7 8 8 8 8 8 8 9 9
1 0 1 2 3 1 2 2 2 1 3 2 2 2 3 3 2 2 2 3 3 3 2 1 0 1 1 1 2 4 4 4 3 1 1 2 2 2 2 4 5 5 2 3 3 1 3 4 4 5 7 6 6 4 1 1 2 5 5 8 11 9 8 4 4 4 7 10 10 10 13 15 9 3 5 6 7 9 10 9 9 10 10 10 8 8 9 9
2 0 1 2 2 1 1 1 1 1 3 4 2 2 4 4 2 1 2 3 4 3 2 1 1 2 3 4 4 6 7 7 5 2 2 3 3 2 2 3 4 2 2 3 2 2 3 5 7 10 10 10 10 7 1 2 3 8 7 8 10 10 11 9 5 8 10 7 7 14 17 18 20 17 13 12 13 14 13 12 11 11 12 12 11 10 9 9
2 1 0 1 0 1 1 1 2 1 1 4 3 2 5 5 2 3 3 3 2 3 4 3 4 5 5 6 5 6 6 7 6 4 4 6 3 1 3 3 4 3 3 2 2 2 3 6 9 13 17 17 16 15 9 5 9 15 13 9 11 12 12 11 11 15 11 5 10 18 17 16 21 22 17 15 15 14 13 13 13 13 13 13 11 11 11 11
1 1 1 1 1 1 1 1 3 2 1 3 2 2 5 6 5 4 3 1 1 4 5 4 7 10 9 7 5 4 4 5 7 5 4 5 4 3 3 4 6 7 6 5 4 3 4 7 5 8 16 19 17 17 16 13 14 16 17 16 13 13 15 15 18 22 14 9 16 21 18 18 21 21 19 17 15 15 14 14 13 13 13 12 12 12 12 12
0 1 1 1 2 1 1 0 2 3 3 2 2 3 5 7 8 4 2 3 3 6 7 6 8 11 13 11 7 6 5 5 6 6 4 4 4 4 3 4 6 8 8 7 5 3 4 5 1 2 9 17 16 16 16 15 15 16 19 20 18 17 18 17 19 23 19 19 24 26 25 24 22 21 21 19 16 14 14 13 12 13 13 13 13 14 13 12
0 0 2 1 0 2 2 1 2 3 3 2 3 4 4 6 8 4 3 5 5 5 9 10 9 8 11 12 10 11 11 9 7 6 5 5 4 5 4 3 5 7 8 7 5 5 5 3 2 3 5 14 14 10 10 12 13 16 20 21 19 19 19 19 19 20 18 20 25 26 24 22 19 17 17 15 13 12 12 12 12 12 12 13 14 14 12 12
0 1 1 1 1 2 1 1 2 3 3 4 4 3 3 6 8 5 5 9 8 6 10 11 10 5 7 10 14 17 15 12 10 6 5 6 4 4 4 2 6 8 8 7 5 6 6 3 0 2 6 12 7 2 5 8 10 15 20 22 20 18 17 17 16 15 15 16 17 15 13 14 13 11 11 11 11 12 12 13 12 11 12 13 14 14 12 12
1 1 1 2 1 2 2 1 2 3 3 2 3 4 3 3 4 4 4 6 8 6 7 9 7 4 6 10 15 14 8 5 6 3 2 4 5 4 5 4 5 7 8 7 5 5 6 5 3 3 7 9 3 1 3 6 9 12 13 13 13 14 15 15 14 14 16 14 9 8 10 11 11 10 11 13 14 14 14 12 12 12 13 14 14 13 12 13
Wind_Direction
334 324 309 300 291 279 268 253 237 228 227 229 227 229 232 223 222 223 213 212 214 217 217 222 247 171 159 161 159 148 131 126 105 65 57 19 342 327 322 317 307 308 292 285 262 240 212 204 202 197 202 192 212 196 173 203 233 225 236 240 252 259 265 18 17 18 16 140 146 165 176 175 159 158 148 154 162 139 154 158 133 126 90 77 94 117 131 142
327 318 308 299 293 284 277 269 259 252 247 246 242 241 243 238 235 236 231 224 216 213 207 202 192 168 165 158 151 141 108 187 212 54 39 343 334 329 325 322 304 295 248 246 248 233 217 208 192 195 211 196 190 171 171 175 229 232 249 244 261 359 49 23 9 22 0 127 144 162 181 189 166 157 164 182 173 160 172 169 167 161 135 124 123 131 136 144
328 319 312 304 294 285 277 273 268 264 260 257 255 250 248 246 239 236 239 237 228 216 198 185 175 172 170 161 155 134 357 269 262 36 359 335 337 339 340 339 320 278 218 245 269 251 250 247 198 198 216 213 190 187 193 172 226 229 256 252 346 38 72 42 12 20 0 86 147 160 168 178 156 149 174 196 179 179 194 181 182 186 169 156 147 147 147 154
336 329 320 308 296 287 277 271 268 267 266 262 259 255 250 246 236 228 229 231 230 217 207 194 177 178 175 171 177 258 310 265 259 9 340 340 345 352 352 345 332 281 227 260 274 259 261 262 212 208 224 224 192 203 207 152 236 214 250 277 31 7 30 46 16 15 350 245 160 152 155 165 146 154 184 190 179 192 210 183 187 198 173 161 157 157 157 164
343 339 332 323 312 298 284 273 265 263 264 263 260 255 246 239 232 225 219 219 218 208 201 192 180 183 183 190 204 252 298 265 39 355 341 346 347 350 346 343 338 293 267 261 259 245 237 230 213 216 233 229 193 206 203 119 305 253 132 8 28 338 352 48 26 19 348 232 159 158 166 152 139 175 200 206 203 194 220 141 154 194 167 161 161 161 164 172
348 348 345 338 325 313 306 297 291 282 273 269 261 251 245 235 225 223 218 210 205 198 195 191 183 184 192 206 217 245 285 288 16 347 344 344 341 349 347 346 347 305 265 233 240 228 215 213 210 215 229 234 213 202 141 109 228 253 125 68 30 9 29 48 47 23 331 188 170 165 146 130 159 192 202 229 231 83 43 72 85 131 153 160 160 162 170 178
350 350 348 343 333 327 326 321 317 308 293 275 257 247 240 226 219 216 211 205 196 187 188 189 187 186 192 199 212 236 252 30 0 343 344 342 339 348 348 347 357 16 213 223 226 214 209 208 207 216 224 234 226 191 88 126 212 257 168 92 48 46 61 59 70 48 6 151 142 116 129 157 194 196 181 226 198 102 92 88 105 119 143 161 164 169 178 183
346 347 349 348 345 341 338 335 332 323 309 275 252 246 229 213 207 202 199 197 182 175 179 183 190 183 173 178 209 225 165 9 346 341 344 345 342 343 348 352 352 22 221 245 243 227 222 215 213 228 230 234 233 161 48 223 209 268 114 107 82 71 80 78 90 91 72 90 91 136 177 179 207 329 252 216 168 135 159 146 153 151 154 170 173 177 182 187
341 345 351 352 348 346 344 341 339 334 324 273 243 237 217 194 189 189 185 173 164 168 169 163 161 158 161 180 233 236 49 355 339 344 349 351 353 352 353 344 321 281 242 261 262 247 233 224 223 233 241 125 99 104 19 271 228 64 99 110 106 100 97 100 101 99 94 102 130 198 198 167 197 311 264 208 160 148 159 167 175 172 176 181 180 184 187 193
340 346 353 352 348 349 349 344 342 338 329 270 228 210 186 173 173 173 165 157 157 157 152 148 145 154 177 215 250 251 32 355 344 351 358 7 12 16 9 343 292 271 258 262 273 260 262 279 255 199 84 86 88 58 2 294 99 95 109 102 102 106 102 117 112 113 123 116 182 257 220 185 165 234 245 175 152 158 161 177 181 183 190 186 186 191 195 200
340 346 351 349 350 355 353 349 346 345 345 250 186 169 157 157 159 159 154 151 151 149 145 147 156 176 200 234 265 20 30 1 357 1 10 22 29 31 25 16 354 293 285 284 33 320 311 318 275 179 190 141 106 71 61 98 116 118 121 101 103 121 116 144 137 138 178 135 195 287 259 208 175 222 236 154 154 168 170 182 185 193 197 190 195 198 202 207
337 345 349 350 356 358 356 5 13 30 67 104 121 127 134 142 145 147 144 144 148 148 145 140 142 202 240 47 42 34 15 5 9 9 14 25 31 35 31 26 24 347 311 321 62 26 2 323 214 139 107 155 133 97 109 132 134 135 154 120 128 159 158 174 154 153 222 151 139 292 268 229 207 217 204 141 155 168 176 188 187 198 200 196 200 202 209 209
330 340 349 354 1 2 11 31 53 77 92 101 107 114 124 131 137 140 141 144 148 149 150 138 87 279 273 59 67 26 359 14 13 11 16 16 16 29 32 32 42 36 25 74 71 53 41 356 107 86 73 125 114 106 125 148 159 158 215 207 159 203 192 176 159 168 211 143 147 264 271 252 210 190 151 137 159 167 182 196 191 199 201 203 205 205 213 209
318 337 351 357 10 24 40 59 81 92 98 103 107 112 114 115 113 112 123 139 152 161 168 174 351 272 290 81 83 26 24 34 15 11 17 13 353 25 42 38 50 56 63 81 78 64 71 85 104 98 60 62 113 133 129 148 196 181 201 218 214 252 169 156 163 180 193 149 175 242 264 279 197 150 142 150 168 173 189 200 195 201 202 206 209 210 215 212
312 336 351 358 28 61 68 83 96 100 105 108 110 112 111 109 105 104 114 129 150 165 179 184 224 253 129 99 109 30 32 31 12 4 7 11 356 10 46 39 52 64 69 80 83 74 87 100 103 102 78 92 138 160 143 157 201 183 213 239 221 247 154 149 168 194 210 154 185 222 258 275 154 137 157 164 175 190 202 205 200 204 205 208 210 213 219 217
314 336 346 359 54 93 93 99 107 109 112 112 112 113 111 108 102 100 110 125 146 151 165 176 268 290 178 98 111 65 30 15 0 353 358 6 1 4 3 3 58 74 83 86 93 90 88 82 78 106 120 135 166 182 187 196 203 189 231 269 242 246 227 153 164 192 224 153 196 222 258 284 160 138 167 174 183 198 210 214 208 208 208 210 212 212 217 217
316 326 316 341 87 110 108 111 117 119 119 116 114 115 114 110 100 87 89 110 127 128 117 76 326 294 75 66 116 53 9 358 355 354 355 354 355 357 320 261 150 90 112 116 121 111 97 88 116 154 152 200 214 219 234 238 237 195 210 258 262 254 264 237 161 161 193 212 227 229 239 267 264 175 170 184 192 198 216 220 213 214 212 212 215 214 217 217
311 298 207 201 133 125 119 119 127 130 126 118 115 117 113 104 92 72 59 85 134 141 122 44 354 237 87 40 352 342 343 343 353 359 356 347 338 341 335 283 224 225 214 186 147 110 155 150 198 206 182 206 211 231 251 298 322 332 297 276 281 251 256 264 182 133 188 220 244 243 239 257 266 243 188 185 192 201 216 222 218 218 216 214 216 217 218 218
287 232 188 188 161 141 131 129 130 128 122 117 115 116 113 106 95 68 43 38 100 161 139 19 355 230 63 21 350 327 320 312 339 8 6 353 334 299 301 280 239 230 249 248 141 42 280 204 210 223 183 177 11 331 318 351 344 337 330 306 305 289 273 282 97 114 196 240 244 247 250 258 265 263 228 188 189 207 218 221 222 220 219 219 218 220 220 220
260 207 183 188 175 155 142 136 129 125 124 124 124 127 135 136 127 73 38 40 55 25 22 20 7 40 42 7 349 334 312 269 325 21 9 352 329 288 260 251 239 220 263 293 49 51 289 244 207 347 12 19 11 8 351 343 334 319 306 290 285 282 286 89 105 118 147 273 258 251 257 261 264 268 257 205 187 209 221 220 222 220 220 221 220 222 221 222
247 199 184 190 182 162 151 142 134 132 133 136 205 242 236 286 281 122 71 60 58 25 46 45 2 45 35 342 350 346 319 220 264 24 10 355 313 278 272 244 244 215 71 346 328 66 249 255 49 33 11 12 3 359 339 321 319 297 285 282 275 274 292 78 97 127 153 260 272 271 268 265 265 266 263 233 200 211 217 216 220 221 220 223 223 224 223 223
256 205 188 190 181 167 160 152 145 143 134 344 276 267 306 359 120 130 137 101 71 14 41 54 345 61 44 324 358 340 303 228 4 23 8 356 347 329 338 306 267 52 92 201 244 215 220 207 57 40 20 24 27 17 314 289 280 267 267 275 280 311 331 63 106 135 189 238 278 288 282 274 270 265 262 247 225 220 217 216 220 220 221 223 223 223 223 222
271 213 190 187 181 173 168 165 160 157 299 312 295 263 139 122 128 131 143 114 97 359 24 37 18 30 29 45 2 337 337 14 347 13 1 349 7 9 336 348 41 84 124 290 292 268 245 80 61 41 16 282 129 107 278 262 245 250 276 282 294 0 344 288 124 160 226 238 283 298 289 278 270 260 258 251 237 230 225 225 225 224 226 226 224 222 220 220
283 215 194 189 184 179 177 176 180 210 282 301 100 140 139 131 129 128 141 113 108 122 69 40 16 21 27 30 343 337 50 54 354 358 356 352 360 327 333 19 14 103 52 353 347 31 69 68 42 28 234 292 280 175 276 284 255 205 254 299 306 347 327 287 310 303 259 232 257 291 287 278 266 244 250 243 229 229 228 231 233 231 234 235 232 227 222 223
289 217 197 190 187 186 186 190 209 223 235 155 134 148 144 137 135 128 277 221 136 133 143 189 189 39 23 350 342 342 77 67 31 1 355 360 350 314 77 28 313 80 54 346 345 92 78 63 25 210 207 285 278 254 20 318 282 199 108 350 331 325 308 291 302 304 287 243 199 291 305 296 286 264 265 211 192 222 224 228 235 233 233 235 234 230 226 226
290 211 192 188 188 189 188 198 218 211 209 186 166 162 150 142 147 24 300 250 205 124 155 190 177 38 12 354 5 351 242 84 44 358 355 5 340 295 185 114 357 67 44 351 350 99 79 86 222 251 234 250 259 254 66 323 283 272 55 3 333 304 295 291 297 294 297 308 210 201 298 292 290 286 272 214 205 232 224 223 232 234 229 227 228 228 226 225
293 201 189 186 189 187 184 206 199 190 199 200 180 169 157 154 160 80 298 251 213 80 8 106 108 15 25 357 342 310 282 357 351 10 10 360 340 247 250 41 93 88 74 336 307 132 87 125 189 249 242 241 248 224 71 339 287 311 19 316 297 286 282 286 293 274 281 311 280 196 232 277 289 293 251 204 242 259 244 233 230 226 226 226 227 226 225 225
273 191 185 185 187 183 182 232 178 183 213 188 175 174 169 178 196 261 282 259 227 75 11 70 90 16 27 329 345 27 10 324 302 55 18 338 334 245 216 50 56 105 116 263 297 81 41 151 166 229 237 240 256 84 54 355 287 15 21 285 283 279 277 273 273 272 278 309 290 213 194 264 282 284 174 173 250 266 262 268 252 230 224 225 228 227 227 227
170 177 177 176 180 183 200 250 184 192 212 182 173 175 174 197 232 262 263 262 355 114 48 56 163 1 350 266 14 58 56 342 356 7 345 311 15 1 64 67 104 115 137 253 321 92 145 63 35 275 255 249 83 86 46 337 308 18 358 262 262 252 258 248 250 275 279 276 280 229 165 268 292 289 235 183 238 264 311 327 314 272 236 226 228 230 231 231
136 164 169 167 172 184 206 239 200 200 190 175 172 171 187 225 245 252 245 262 26 125 269 340 248 319 330 262 175 52 30 45 11 320 311 174 99 79 67 22 204 141 139 177 82 99 122 81 308 270 298 37 85 93 42 331 314 328 270 253 247 228 229 236 241 268 272 259 267 104 134 272 298 294 282 171 179 320 328 313 306 300 279 251 238 235 238 236
129 155 166 165 168 180 191 193 194 193 176 168 164 166 211 225 247 259 255 250 115 143 236 25 21 323 347 322 352 30 30 60 7 335 1 156 167 129 141 235 232 219 190 166 129 130 159 188 182 144 75 104 136 155 140 248 258 267 263 267 271 245 221 233 222 212 258 274 99 100 106 251 259 271 292 310 285 270 281 286 291 296 296 287 273 258 251 246
125 150 169 175 179 185 196 183 173 171 163 160 160 180 229 221 235 247 217 197 243 26 349 56 46 3 359 320 316 2 336 62 20 5 9 326 337 77 342 337 351 257 224 156 156 170 181 183 133 120 171 211 210 204 175 179 204 235 252 267 288 289 270 262 256 246 269 292 110 118 90 255 252 264 276 281 280 275 268 264 276 289 295 294 288 275 260 244
97 128 160 171 181 187 185 166 160 158 155 155 174 220 237 248 251 146 97 238 319 33 24 333 23 344 315 279 349 8 281 259 12 17 19 288 262 96 55 353 343 289 302 359 299 227 183 131 146 159 181 199 214 232 223 188 189 217 256 295 297 306 307 288 285 284 282 291 125 125 124 265 263 268 262 264 272 278 274 266 269 281 284 286 289 283 271 256
88 105 127 123 131 142 143 151 151 151 154 166 210 210 225 251 266 69 213 191 60 74 114 26 295 264 278 282 31 1 255 182 6 323 262 244 247 208 161 159 258 283 287 300 313 292 289 264 169 176 133 165 204 245 327 317 249 221 343 322 286 285 284 282 297 297 295 305 296 139 167 256 262 281 245 241 256 258 255 253 248 262 265 271 281 277 269 264
91 93 97 92 90 101 120 143 150 153 167 200 215 205 233 252 159 187 226 119 111 162 141 85 275 252 237 170 115 22 323 134 44 306 264 251 285 316 74 120 164 257 283 276 22 329 266 270 111 95 94 161 196 203 22 296 268 186 64 268 260 291 277 273 297 297 298 305 288 219 229 248 259 283 275 257 258 251 245 243 237 253 256 248 261 265 259 260
85 82 80 72 65 78 110 141 151 162 198 220 211 222 246 320 25 312 357 81 132 152 159 187 246 257 234 179 164 150 146 284 312 291 237 224 277 264 105 68 108 200 308 303 353 301 273 265 120 124 158 165 176 50 200 287 298 143 207 243 50 21 311 279 269 263 261 275 265 240 262 271 277 285 273 234 240 243 233 235 233 244 246 231 246 256 252 253
69 74 68 50 45 67 108 134 154 185 227 227 228 253 316 42 13 17 46 53 82 127 201 208 222 261 255 230 170 147 150 216 238 262 232 190 213 176 163 124 76 116 23 336 289 119 306 284 160 166 183 136 46 330 238 260 293 251 253 325 51 62 297 272 266 274 260 262 266 260 270 281 288 288 257 153 199 222 216 227 239 245 234 222 236 245 247 250
46 98 80 36 29 58 93 114 155 195 218 230 245 274 9 139 49 59 83 66 34 223 234 247 257 208 282 283 161 131 156 213 168 228 265 212 202 166 167 159 126 127 48 331 282 102 302 283 175 152 129 128 147 257 240 209 214 270 305 340 294 272 233 212 248 289 282 275 279 268 268 273 262 256 264 251 235 234 238 244 258 268 254 240 246 251 259 261
294 199 106 24 18 53 69 95 166 203 217 234 249 249 141 134 88 79 55 327 297 219 231 278 358 228 245 287 343 113 172 262 297 276 262 231 207 179 181 167 151 155 114 281 282 56 237 268 264 126 108 130 177 223 229 192 171 226 286 245 223 290 273 254 270 294 280 282 288 282 273 266 253 249 266 268 249 248 274 268 263 269 262 257 263 264 269 271
295 248 79 15 5 71 68 112 184 208 224 244 274 298 97 122 116 94 39 1 286 235 284 333 59 230 229 243 285 256 201 251 270 277 249 207 239 195 181 171 149 146 129 283 289 298 199 226 275 167 147 204 212 202 221 211 165 176 211 211 194 179 248 273 265 246 258 272 282 286 275 265 260 252 257 259 259 266 275 270 261 258 258 259 262 264 267 267
284 239 62 1 302 110 94 136 160 216 237 258 347 76 26 132 128 123 73 8 331 43 6 318 297 272 272 267 246 203 223 248 234 249 246 207 234 227 167 172 153 146 147 182 224 245 212 223 264 255 228 239 222 143 4 345 154 196 206 204 203 188 180 248 249 214 223 256 266 281 281 275 263 182 254 255 256 262 257 254 253 250 254 257 255 258 262 262
267 232 27 355 220 193 229 175 77 316 263 283 342 81 60 186 144 143 144 164 285 231 189 277 275 254 259 273 275 195 242 262 221 228 252 225 237 313 115 165 157 157 171 221 175 199 337 270 263 264 258 246 118 86 50 18 357 295 251 230 223 201 198 233 253 222 192 239 283 290 276 277 261 189 232 238 229 244 246 243 250 251 252 254 252 258 263 268
282 220 35 34 154 208 253 204 146 239 224 38 340 74 76 214 159 145 173 188 208 213 217 235 224 234 251 262 261 210 221 248 224 219 251 247 240 43 112 167 157 167 197 254 155 147 167 248 248 270 266 214 114 109 100 46 336 269 246 228 224 216 206 230 267 352 248 239 248 252 257 270 270 182 208 215 204 233 233 229 242 249 254 255 257 263 269 277
31 95 43 32 56 230 240 231 219 212 161 130 207 154 172 246 198 182 202 198 196 204 224 232 224 230 238 208 248 226 205 239 236 228 251 246 192 72 132 179 174 189 203 227 141 164 191 230 232 281 289 253 183 196 173 161 201 231 240 215 207 193 101 54 278 262 266 245 234 246 263 266 263 137 170 183 183 212 224 232 248 261 273 276 276 276 277 281
152 144 90 57 36 46 223 281 316 187 148 168 211 190 196 216 211 235 236 202 201 228 242 251 69 218 196 186 239 237 232 243 244 242 346 249 210 118 143 187 200 213 185 41 5 202 222 254 232 253 281 272 271 283 284 213 209 221 226 201 197 178 146 174 241 232 245 241 219 223 249 262 265 214 194 212 234 256 266 275 283 290 296 301 299 289 282 283
226 277 154 149 52 55 156 16 335 193 152 179 207 195 200 203 167 192 244 218 193 205 248 245 140 208 210 202 236 243 226 221 232 286 284 235 217 133 141 196 217 221 87 65 328 267 254 263 239 238 251 254 267 286 9 61 272 260 241 195 186 185 182 195 233 238 238 243 231 229 238 262 275 272 267 273 280 286 292 296 301 304 306 309 305 293 286 284
265 281 91 172 161 187 182 160 196 201 174 200 200 154 192 207 159 152 214 234 188 196 238 227 193 208 198 186 230 249 217 207 224 253 250 231 225 123 145 194 211 193 132 138 222 220 248 261 235 231 244 250 262 277 286 288 273 272 271 237 195 183 185 193 218 233 237 256 260 249 240 254 271 274 279 285 286 292 297 299 303 306 305 304 298 289 285 284
288 3 40 6 297 207 216 202 190 184 191 219 220 153 192 204 194 196 209 191 182 210 222 221 210 217 214 199 219 238 205 209 221 219 222 226 222 186 169 190 193 178 167 180 197 191 248 266 230 216 249 258 262 270 274 272 268 269 269 261 236 199 184 194 221 233 233 235 253 263 265 264 270 277 282 285 289 296 298 297 299 299 296 294 290 287 285 284
90 67 87 357 321 33 42 19 167 179 193 217 234 204 206 213 209 207 163 150 205 213 209 232 229 215 215 216 222 232 215 212 228 218 195 194 209 205 204 207 184 174 181 192 190 189 240 258 199 165 264 272 268 262 259 258 262 265 263 260 253 231 209 205 226 237 235 240 251 263 271 271 271 275 280 285 292 294 291 289 288 285 287 290 290 288 284 282
221 294 118 145 231 83 67 149 166 193 190 199 243 211 202 225 215 197 162 184 210 191 188 229 244 212 210 214 217 233 227 222 255 254 185 177 206 209 219 221 159 168 197 200 184 196 220 234 108 113 280 282 273 254 241 244 254 265 269 263 252 241 232 224 233 240 239 244 252 258 266 270 270 271 277 282 283 279 275 277 278 281 290 294 294 294 289 285
355 2 126 224 211 132 149 169 163 243 216 190 220 201 194 228 214 203 212 209 217 200 183 214 236 212 205 214 222 236 237 236 266 277 176 191 227 210 213 199 134 154 192 200 178 181 202 231 108 144 269 278 272 216 233 256 263 263 268 265 249 233 229 226 227 228 224 232 248 254 257 261 266 275 281 279 279 281 283 288 293 297 300 297 296 298 293 289
132 65 199 278 277 165 185 178 177 248 253 199 212 199 199 230 195 195 235 213 214 225 201 206 221 210 214 221 226 240 254 260 286 320 153 233 265 245 237 226 174 168 175 182 186 180 193 231 245 210 259 269 254 158 290 302 290 266 260 263 250 226 219 221 222 222 219 221 237 244 242 254 273 292 296 294 297 299 299 302 304 304 300 295 292 291 288 288
Height
816 816 816 815 815 815 814 815 814 814 813 813 813 813 813 813 813 814 814 814 814 814 814 814 813 812 812 812 812 813 813 812 813 813 814 815 815 814 812 811 809 809 809 808 808 808 807 806 806 806 805 804 803 801 803 804 804 806 809 811 808 798 800 807 806 808 809 813 823 827 826 826 834 840 841 842 842 844 847 849 852 853 854 854 854 855 857 860
816 816 815 815 814 814 813 813 813 813 812 812 812 812 812 812 813 813 813 813 814 814 814 814 813 813 813 813 813 813 812 812 812 813 814 815 814 811 809 809 808 808 807 807 808 806 805 803 804 804 803 803 802 802 803 804 805 806 807 807 804 803 811 817 814 814 812 811 820 825 824 824 829 835 838 839 840 844 845 847 850 851 854 855 857 858 859 862
816 815 815 814 813 813 813 812 812 811 811 811 811 811 811 811 812 812 812 812 813 813 813 813 813 813 813 813 813 813 813 812 812 813 815 814 812 810 808 807 807 807 807 807 807 806 804 802 802 803 802 802 801 803 804 806 807 805 807 806 807 813 817 821 820 820 818 815 819 824 826 826 828 833 835 834 836 841 839 841 845 846 851 854 856 859 860 862
815 815 814 813 813 812 812 812 811 811 810 810 810 810 810 810 811 811 811 812 812 812 813 813 813 813 814 813 813 814 813 812 813 815 815 812 811 809 808 807 806 807 806 806 807 806 805 803 802 801 802 802 801 803 804 807 807 805 809 810 814 816 815 823 826 824 823 818 819 825 828 829 832 834 834 832 833 836 832 833 839 840 845 851 854 858 860 862
815 814 813 812 812 812 812 811 811 811 810 810 809 809 809 810 810 810 811 811 812 812 812 812 813 813 813 814 814 814 814 814 815 815 814 811 810 809 807 807 806 806 806 806 806 805 805 803 803 802 803 802 801 804 804 806 807 807 814 819 820 819 817 827 830 829 827 821 822 827 828 830 834 836 834 831 828 832 834 834 837 838 842 849 852 856 858 861
814 814 813 812 812 811 810 810 810 809 809 809 809 808 808 809 809 809 810 811 811 812 812 812 812 813 813 814 814 814 815 817 816 814 813 811 810 809 807 807 806 806 806 806 806 805 805 803 804 805 804 802 801 805 806 807 808 809 818 823 824 823 824 830 832 833 831 824 826 828 828 831 834 834 834 833 830 837 842 841 841 841 844 848 851 855 857 859
815 814 813 812 811 810 810 809 808 808 808 808 808 808 808 808 808 809 810 810 811 811 811 811 812 812 813 814 815 814 813 816 816 814 813 811 810 808 807 807 805 806 806 806 805 804 803 803 804 804 802 803 801 804 808 808 808 809 816 825 828 828 830 833 834 835 832 828 829 830 831 833 832 832 835 836 837 843 846 845 846 846 847 849 851 853 855 857
815 814 813 812 811 810 809 808 808 807 806 807 807 807 807 807 808 809 809 810 811 811 811 811 811 812 813 814 814 812 812 816 816 815 813 811 810 808 807 807 806 806 806 806 804 802 803 802 802 801 800 804 802 806 811 809 809 811 818 827 830 831 833 835 835 835 835 833 834 834 833 834 835 837 838 835 838 844 846 847 848 849 850 850 850 852 854 856
815 814 813 811 811 810 809 808 807 807 806 806 806 806 806 807 808 808 810 810 811 811 811 812 812 813 813 814 812 811 815 818 817 815 813 811 810 809 808 807 807 806 806 805 804 803 802 801 800 799 800 804 805 811 816 812 813 817 822 827 830 832 834 835 835 836 836 835 836 834 835 838 841 842 835 831 838 843 845 848 848 849 850 849 850 851 853 855
814 814 812 811 811 810 809 808 807 806 806 805 805 806 806 807 808 809 810 811 811 811 812 812 813 813 814 813 811 812 818 819 817 816 814 812 810 809 808 807 806 806 805 805 804 803 802 801 799 798 801 806 810 816 819 817 820 823 826 829 831 833 835 834 835 836 835 836 838 834 834 837 841 841 829 827 839 842 844 847 847 848 848 849 850 851 853 854
814 813 812 811 810 810 809 808 807 806 805 805 805 805 806 807 808 810 810 811 811 812 812 813 813 813 813 811 810 814 819 818 818 816 814 813 811 809 808 807 806 806 805 804 805 804 803 803 800 801 804 806 813 820 822 823 824 825 826 829 833 833 834 834 833 836 834 835 838 834 834 836 841 839 826 828 838 840 842 844 845 847 846 847 849 851 853 853
814 813 812 811 810 810 809 808 807 806 805 805 805 806 807 808 809 810 811 811 812 812 813 813 813 813 811 811 813 818 819 819 818 817 815 814 812 811 809 808 807 806 806 804 805 806 805 805 802 804 806 807 815 822 824 826 824 825 824 826 832 831 831 832 832 834 833 834 837 836 833 828 831 829 822 830 838 839 841 842 844 845 845 846 848 850 851 852
814 814 813 812 811 810 809 809 808 807 806 806 806 807 808 809 810 811 811 812 812 813 813 813 813 813 811 813 818 820 819 819 819 817 816 815 813 813 811 810 808 807 806 805 806 807 806 806 804 807 809 811 820 824 824 826 825 824 822 821 827 826 825 828 831 834 833 835 838 837 828 811 809 819 824 832 836 838 840 840 842 843 843 845 845 848 849 850
815 814 813 813 812 811 810 810 809 808 808 808 808 809 809 810 811 811 812 812 813 813 813 813 814 813 813 817 820 820 819 819 819 818 816 815 815 814 813 812 810 809 808 807 808 808 807 807 806 809 813 814 822 825 824 826 824 822 823 821 820 817 820 826 830 831 831 835 837 837 830 808 803 818 828 833 834 836 837 836 839 840 842 843 843 845 846 847
814 814 814 813 813 812 812 811 810 810 809 810 810 811 812 812 812 813 813 814 814 815 815 814 814 812 814 819 821 820 820 819 819 819 817 816 815 814 814 813 812 811 810 809 809 809 809 808 808 812 818 820 822 822 822 823 821 820 822 818 813 814 819 826 830 829 829 834 836 835 828 809 807 822 829 832 834 834 833 833 835 837 839 840 841 842 843 844
814 814 814 813 813 813 812 812 812 812 811 812 812 812 813 813 814 814 814 815 814 815 815 815 814 812 814 819 820 819 820 820 820 819 818 817 816 815 815 814 813 812 811 811 810 811 810 810 813 816 819 821 818 816 817 819 818 819 820 814 811 813 815 821 829 830 830 832 833 833 826 811 810 822 829 831 832 833 831 829 831 833 835 837 838 839 840 840
814 814 814 814 814 814 813 813 813 813 813 813 814 814 814 815 815 815 815 815 815 816 815 815 814 813 816 819 819 820 821 821 820 819 818 817 816 816 815 813 813 812 811 811 810 810 810 813 818 816 816 816 813 812 816 817 813 813 816 813 810 812 812 815 825 831 832 833 831 830 828 818 811 817 826 829 829 831 830 827 827 828 830 833 834 834 835 835
814 814 814 814 814 814 814 814 814 815 815 815 815 815 815 816 816 816 817 816 816 815 815 815 814 816 821 821 821 822 822 822 820 819 818 817 816 815 815 813 813 812 811 810 810 810 809 813 816 814 814 814 812 814 817 820 817 814 815 813 809 812 812 811 820 831 833 834 832 828 826 818 809 809 818 824 825 826 826 823 822 824 825 827 829 829 829 830
815 814 814 814 815 815 815 815 815 815 816 816 816 816 816 817 816 816 817 817 818 819 820 821 820 822 825 823 823 823 822 822 820 819 819 817 816 815 815 813 812 812 811 810 810 810 811 813 813 813 814 817 819 821 823 826 826 821 818 818 815 814 812 813 823 834 834 833 832 826 821 814 807 804 807 815 821 821 820 819 818 819 820 821 822 823 823 824
815 815 815 815 815 816 816 816 816 817 817 817 817 817 817 816 816 820 821 821 825 828 828 827 826 825 825 825 825 823 821 821 819 819 819 817 817 816 813 812 811 810 813 815 813 815 817 814 815 821 825 827 829 831 832 830 828 825 821 821 820 816 814 817 827 836 838 834 824 818 817 811 806 801 799 806 815 817 815 814 814 814 814 814 816 817 817 818
815 815 815 815 815 816 816 816 817 817 817 818 818 817 816 815 817 822 826 828 830 830 829 829 828 827 827 828 826 825 823 820 818 819 819 817 817 815 812 811 811 811 817 822 818 818 819 816 823 833 835 836 836 836 835 832 829 827 824 821 818 815 815 819 828 834 838 836 821 813 813 808 803 799 794 798 806 808 807 807 808 807 808 809 809 811 812 814
814 814 814 815 815 816 816 817 817 817 818 818 817 816 815 815 816 818 821 827 832 830 829 830 828 827 828 828 827 826 824 821 819 818 820 817 815 816 813 809 812 815 819 822 819 817 816 822 833 839 839 839 838 837 836 833 830 826 822 820 817 816 817 822 832 836 836 834 822 813 812 805 799 795 789 790 793 795 797 798 800 800 802 803 803 805 807 809
814 813 814 814 815 816 817 817 817 818 818 818 817 816 816 816 817 817 817 823 830 831 830 829 829 828 828 828 828 826 824 826 824 822 823 820 817 819 818 813 815 818 819 819 818 815 816 829 839 840 841 839 834 836 835 831 827 823 821 820 817 819 822 824 830 834 833 830 824 820 819 805 792 788 785 783 782 785 790 792 793 795 795 795 796 799 802 803
813 813 813 814 815 816 817 817 818 818 818 818 817 817 817 817 817 818 818 821 827 830 830 831 830 829 829 830 830 827 826 829 829 827 827 825 822 821 821 822 821 820 824 825 821 821 828 840 843 843 843 838 833 833 832 829 822 820 825 824 822 824 828 826 827 829 826 827 832 828 815 794 779 781 780 776 777 780 785 789 790 791 791 792 793 794 797 798
812 812 812 813 815 816 817 818 818 818 819 818 818 818 818 818 818 818 819 822 826 829 830 831 830 830 832 831 830 829 828 829 831 832 831 830 827 824 825 828 825 824 829 829 823 825 835 844 845 843 840 836 835 831 833 835 822 818 829 833 831 831 832 829 828 828 819 818 829 827 812 790 774 776 775 773 780 782 784 788 789 789 791 792 792 791 793 794
811 811 812 813 814 816 818 818 817 818 819 818 819 819 818 819 819 818 819 822 825 829 831 830 830 831 831 831 831 831 829 830 833 833 832 832 831 829 828 827 827 829 833 833 830 831 837 845 847 842 838 837 835 831 837 841 825 820 835 841 838 836 835 832 829 829 819 812 818 824 820 801 780 775 770 771 779 779 781 785 786 786 788 789 790 789 790 790
810 811 811 812 813 815 817 817 816 817 818 818 818 819 819 820 820 819 823 827 827 830 831 828 830 833 831 832 832 831 831 832 833 833 833 832 831 831 827 826 828 831 837 836 831 835 839 842 844 842 839 835 832 831 839 844 831 827 842 847 840 837 835 832 831 829 820 814 814 816 821 812 792 777 768 770 776 775 775 778 778 780 782 782 783 785 786 786
810 811 811 812 813 814 815 815 815 817 817 817 818 820 820 820 820 820 827 834 832 831 832 829 831 833 831 832 831 831 834 833 832 832 833 833 831 829 827 830 831 831 840 837 827 837 844 840 841 842 837 832 832 838 844 845 837 836 848 847 840 840 836 833 832 824 818 821 816 809 815 815 794 774 770 777 778 773 770 768 769 772 774 776 777 778 780 781
811 811 811 812 813 814 815 815 815 816 816 817 818 820 820 821 821 821 829 838 833 831 834 831 831 833 832 833 832 832 834 834 834 832 832 832 831 829 829 833 834 833 839 836 829 839 846 844 847 845 837 833 838 846 849 847 841 842 849 846 843 843 837 833 830 820 820 826 816 804 809 812 793 770 769 779 777 770 766 764 763 765 767 770 772 773 775 776
811 811 812 813 813 815 815 815 815 815 816 818 818 820 821 820 823 828 836 837 833 834 834 830 832 835 834 833 832 833 834 835 836 833 831 831 830 831 834 836 835 832 835 835 835 842 848 851 853 848 841 841 845 849 852 852 848 848 847 841 837 835 831 830 824 821 824 818 810 808 810 815 803 774 760 768 771 768 767 766 764 763 764 766 767 769 770 771
811 811 812 813 814 815 815 815 815 815 817 818 819 822 821 821 826 833 838 836 832 834 834 834 838 839 837 836 834 833 835 836 837 835 830 830 829 829 833 834 831 829 828 828 835 843 847 847 846 847 848 847 847 848 853 855 852 850 842 831 826 821 821 822 817 823 823 807 808 818 816 818 811 781 759 761 766 766 767 768 766 763 763 764 765 767 768 770
812 812 813 813 814 814 814 814 814 816 817 818 821 820 821 829 830 828 832 834 833 834 836 840 842 840 841 840 837 838 839 837 838 839 837 833 830 831 836 834 830 828 821 818 828 836 838 838 841 848 851 849 845 840 844 850 850 847 835 826 825 817 815 818 812 813 811 802 811 824 822 817 802 779 766 763 761 761 762 763 763 763 763 763 764 765 767 770
813 813 813 813 814 814 815 815 815 817 817 819 821 818 823 833 832 830 831 830 834 839 842 844 843 842 844 838 837 842 842 839 838 841 842 838 832 836 844 844 840 836 824 819 822 822 825 835 841 845 845 847 844 832 830 836 838 837 828 822 825 823 823 826 816 809 805 802 809 822 826 815 791 771 764 760 756 755 757 759 761 762 763 763 764 765 767 769
815 814 814 814 814 815 815 816 816 818 819 820 819 821 831 833 832 839 837 830 838 845 845 846 844 842 842 837 840 844 840 839 841 840 839 836 829 828 835 843 845 841 829 824 825 822 821 825 832 837 837 843 843 835 834 833 828 827 826 826 827 827 829 827 818 813 812 806 807 820 824 806 782 764 755 755 754 755 757 758 760 762 763 764 765 766 768 768
816 816 815 815 816 816 816 817 818 819 819 819 820 826 833 828 823 830 830 830 839 842 844 849 846 838 835 837 843 848 844 839 840 839 834 830 826 823 828 836 842 842 832 826 829 831 820 816 831 842 841 843 841 839 845 839 827 826 829 829 827 824 822 822 824 825 828 826 817 816 807 783 766 754 746 751 753 754 758 758 760 762 761 764 765 765 766 766
817 817 816 817 818 818 818 818 819 820 819 819 823 827 827 826 825 826 830 836 838 838 841 843 841 832 826 829 838 847 850 844 839 836 830 828 829 829 833 837 842 845 839 830 829 830 819 816 837 846 841 845 843 842 848 840 830 830 829 827 828 829 824 822 828 832 839 838 815 799 788 771 764 754 741 747 753 753 757 757 757 758 757 761 764 763 764 763
818 818 818 819 819 819 819 819 820 821 819 819 825 827 828 832 837 836 841 844 840 840 838 831 834 833 824 823 829 839 848 845 840 833 826 827 829 830 835 841 847 848 846 842 834 833 829 821 831 839 837 845 850 847 846 845 840 832 827 828 830 832 830 827 831 831 830 824 802 789 786 776 773 763 745 748 756 754 755 755 754 755 756 760 761 761 761 760
819 819 819 820 820 819 820 819 820 819 819 822 826 830 833 836 842 845 846 847 843 842 836 826 832 837 829 823 825 836 843 837 832 831 824 822 826 830 833 838 849 851 852 853 840 836 839 824 825 839 838 842 852 846 837 842 846 837 832 836 833 830 827 826 833 831 823 818 801 788 787 779 772 764 750 750 753 750 751 752 753 754 755 757 757 757 757 757
819 818 819 820 820 820 819 820 820 818 820 825 823 825 834 839 845 850 850 848 844 840 834 828 833 838 835 831 829 835 842 835 829 828 824 821 825 832 834 835 846 853 854 854 843 837 840 828 823 837 841 840 843 838 827 829 843 847 840 837 834 833 828 823 829 828 822 820 807 793 788 774 757 750 748 747 746 746 750 751 752 753 753 754 755 755 755 756
819 817 819 821 820 820 820 820 820 820 823 828 826 828 838 842 846 853 854 852 847 841 835 831 834 836 835 836 834 834 840 839 833 829 826 826 826 830 836 836 842 852 855 855 848 840 840 833 823 830 843 838 827 823 816 812 826 839 837 835 836 836 834 831 830 826 822 820 813 805 792 764 743 741 743 744 744 745 749 750 752 752 752 753 753 754 755 755
819 818 819 821 820 821 821 820 824 827 826 829 832 837 842 842 846 854 857 857 852 847 845 840 836 835 833 834 834 834 837 836 834 831 825 826 825 824 834 837 839 849 852 850 849 841 836 834 825 823 828 820 811 818 823 817 818 821 820 822 824 827 833 832 826 826 830 824 813 810 794 756 737 742 742 742 745 745 747 750 750 751 751 751 751 752 752 752
818 820 821 821 821 821 820 823 833 836 828 830 837 843 846 845 846 851 855 857 853 849 850 847 841 839 835 833 834 836 836 831 831 832 825 824 824 825 835 840 838 843 844 841 844 845 842 837 830 821 812 807 815 828 834 831 826 822 819 813 811 817 823 820 815 821 832 829 819 823 810 763 734 740 742 740 744 745 746 749 749 750 750 749 750 750 749 748
819 820 821 821 821 821 821 826 834 834 832 840 847 847 849 847 846 850 852 852 850 848 848 844 841 840 837 836 838 837 836 831 828 827 825 824 827 835 843 842 840 841 841 839 841 847 847 836 829 820 802 804 824 834 835 837 833 825 819 813 812 814 816 817 820 822 824 820 814 821 810 763 732 737 741 740 744 746 747 749 749 749 748 747 747 746 745 745
821 821 821 822 822 822 823 824 826 827 835 845 847 847 850 848 846 848 847 845 845 845 842 839 840 841 841 842 841 836 836 833 826 824 828 827 831 844 847 843 843 841 838 840 839 841 840 826 822 820 803 799 810 814 819 830 832 821 809 808 812 816 826 834 832 831 827 809 801 809 793 751 732 740 742 742 746 746 746 747 746 746 744 743 743 743 743 743
822 822 822 823 822 823 825 826 823 826 836 843 841 842 845 844 846 847 844 843 845 843 839 839 842 843 844 845 843 839 839 835 828 829 834 833 834 845 849 846 845 841 841 847 845 840 836 824 819 819 810 801 795 790 794 804 811 808 803 806 812 819 830 830 822 826 823 801 795 801 778 741 731 739 741 741 743 742 742 742 740 740 740 739 741 741 740 741
820 821 822 822 823 824 828 831 828 827 835 838 835 836 838 837 843 848 846 843 844 845 843 842 845 845 844 845 842 837 837 836 834 835 838 834 831 841 852 850 848 847 848 852 850 844 839 831 824 818 809 800 788 784 793 801 801 798 798 807 817 822 826 822 817 812 801 792 790 780 763 748 738 736 738 739 739 738 738 738 738 738 738 738 739 738 738 738
819 820 822 823 824 824 826 830 829 827 831 830 827 832 835 834 838 846 847 844 843 846 843 841 843 841 838 840 837 829 830 834 837 839 839 835 832 840 853 852 849 852 853 852 850 846 841 833 826 820 812 801 792 789 795 803 802 796 796 802 813 822 826 825 817 796 783 791 783 756 752 758 744 733 737 738 736 737 736 737 737 737 737 737 737 736 736 735
822 822 827 828 825 823 824 827 828 829 831 829 828 832 833 832 835 838 842 846 847 845 840 836 838 836 831 832 830 825 828 832 833 834 835 835 835 837 844 849 850 851 852 851 847 846 842 830 822 824 818 807 804 803 801 802 802 797 795 796 800 812 822 820 807 788 785 791 772 746 748 754 741 733 735 735 736 737 737 737 737 736 736 735 734 733 732 732
826 825 830 833 828 826 831 833 831 830 831 830 830 831 830 828 829 829 834 842 843 841 837 830 827 829 828 827 826 824 823 822 820 823 828 834 837 834 833 838 844 848 848 846 847 849 842 827 825 835 830 814 808 806 803 804 803 798 794 791 790 795 803 805 797 786 787 785 767 755 757 752 740 736 735 734 737 738 737 737 736 735 734 732 731 730 729 729
823 821 826 830 829 832 836 836 833 829 829 830 827 826 827 826 824 825 829 832 829 831 836 829 820 821 823 824 825 820 815 810 808 812 821 826 828 830 825 820 831 847 848 841 845 849 840 827 828 839 833 814 802 799 801 803 803 800 793 786 785 786 788 792 790 785 787 783 768 764 767 756 741 737 737 737 737 737 737 735 733 732 730 729 728 727 727 727
820 819 821 822 824 832 834 831 832 827 823 826 824 821 824 822 819 821 822 820 817 819 827 825 816 818 822 824 823 815 809 808 806 808 815 816 814 818 817 811 821 840 845 841 842 847 844 833 828 836 830 807 795 800 803 801 801 799 787 774 771 775 777 776 774 773 777 776 770 772 773 757 738 733 735 734 733 733 732 730 729 728 727 727 726 725 726 726
821 821 821 819 820 830 831 828 830 827 818 817 818 818 820 818 818 820 816 813 815 816 819 818 816 817 819 819 818 812 809 812 813 813 816 815 813 814 814 813 818 826 835 840 840 841 843 833 821 825 822 801 795 802 800 798 797 781 762 751 747 750 756 758 758 759 761 765 768 766 757 741 731 731 732 730 730 730 728 727 727 726 725 726 725 724 725 724